[[{"header":{"parameterUnit":"m.s-1","parameterCategory":1,"la1":30.2991,"la2":30.254,"lo1":-89.0895,"lo2":-89.0444,"dy":0.0017,"dx":0.0017,"nx":28,"ny":28,"refTime":"2024-12-04T09:00:00:Z","depth":0,"parameterNumber":2,"parameterNumberName":"U-component_of_WINDS"},"data":[0,0,0,0,0,0,0,0,0,0,0,0,0,0,0,0,0,0,0,0,0,0,0,0,0,0,0,0,0,0,0,0,0,0,0,0,0,0,0,0,0,0,0,0,0,0,0,0,0,0,0,0,0,0,0,0,0,0,-2.1509,-2.1509,0,-2.1532,-2.1532,-2.1532,-2.1455,-2.1453,-2.145,-2.1448,-2.1473,-2.1476,-2.1478,0,0,0,0,0,0,0,0,0,0,0,0,0,-2.1398,-2.14,-2.1509,-2.1509,-2.1509,-2.1532,-2.1532,-2.1532,-2.1455,-2.1453,-2.145,-2.1447,-2.1472,-2.1475,-2.1479,0,0,0,0,0,0,0,0,0,0,0,0,0,-2.1436,-2.1401,-2.1509,-2.1474,-2.1471,-2.1532,-2.1532,-2.1532,-2.1456,-2.1453,-2.1449,-2.1446,-2.1471,-2.1475,-2.1479,-2.1575,0,0,-2.1492,-2.1494,0,0,0,0,0,0,0,0,-2.1434,-2.144,-2.1478,-2.1476,-2.1473,-2.1487,-2.1502,-2.1547,-2.1457,-2.1462,-2.1448,-2.1444,-2.148,-2.1484,-2.1496,-2.1577,-2.1578,-2.1493,-2.1495,-2.1497,-2.1498,0,0,0,0,0,0,0,-2.1431,-2.1439,-2.1518,-2.1479,-2.1476,-2.1457,-2.1458,-2.151,-2.149,-2.1461,-2.1455,-2.1459,-2.1478,-2.1492,-2.1496,-2.1578,-2.1492,-2.1496,-2.1499,-2.15,-2.1738,-2.1741,0,0,0,0,0,0,-2.1433,-2.1437,-2.1517,-2.1518,-2.1444,-2.1461,-2.1463,-2.1486,-2.149,-2.1487,-2.1462,-2.1455,-2.1486,-2.1491,-2.1496,-2.1609,-2.1497,-2.1501,-2.1503,-2.1734,-2.1739,-2.1743,0,0,0,0,0,0,-2.1431,-2.1441,-2.1516,-2.1476,-2.1484,-2.1467,-2.1493,-2.1488,-2.1502,-2.149,-2.1487,-2.148,-2.1484,-2.149,-2.1556,-2.1609,-2.1503,-2.1507,-2.173,-2.1736,-2.1741,-2.1836,0,0,0,0,0,0,-2.1428,-2.1441,-2.1477,-2.1478,-2.1487,-2.1576,-2.1497,-2.1491,-2.1509,-2.1501,-2.1506,-2.1503,-2.1481,-2.155,-2.156,-2.1613,-2.151,-2.1725,-2.1732,-2.1739,-2.1828,-2.1844,-2.1858,0,0,0,0,0,-2.1425,-2.1504,-2.148,-2.149,-2.1532,-2.1579,-2.1584,-2.1557,-2.1514,-2.155,-2.1543,-2.1503,-2.1601,-2.1558,-2.1568,-2.1623,-2.1722,-2.173,-2.1738,-2.1821,-2.1841,-2.1857,0,0,0,0,0,0,-2.1511,-2.1503,-2.1477,-2.1558,-2.157,-2.1566,-2.1612,-2.1579,-2.1604,-2.1595,-2.156,-2.1562,-2.1634,-2.1635,-2.1586,-2.1716,-2.1654,-2.1665,-2.1713,-2.1731,-2.1746,-2.1745,-2.1513,0,0,0,0,0,-2.1539,-2.1578,-2.1569,-2.1642,-2.1649,-2.1629,-2.1649,-2.1627,-2.1638,-2.1642,-2.164,-2.1652,-2.1685,-2.1708,-2.1738,-2.1827,-2.1827,-2.1869,-2.1884,-2.1897,-2.1907,-2.1953,-2.1972,-2.1771,-2.177,-2.177,0,0,-2.1599,-2.1599,-2.1626,-2.1659,-2.1666,-2.1707,-2.1634,-2.1681,-2.1711,-2.165,-2.1711,-2.171,-2.1721,-2.1799,-2.1833,-2.1801,-2.1962,-2.1907,-2.1917,-2.1921,-2.1964,-2.1983,-2.2,-2.1776,-2.1775,-2.1774,0,0,-2.1728,-2.1732,-2.1793,-2.1801,-2.1811,-2.1797,-2.1812,-2.1813,-2.1809,-2.1871,-2.1825,-2.186,-2.1918,-2.1928,-2.1941,-2.2072,-2.2036,-2.2082,-2.2161,-2.2207,-2.2223,-2.2237,-2.2284,-2.2301,-2.2093,-2.2093,-2.2093,0,-2.1801,-2.1861,-2.1829,-2.1878,-2.1894,-2.1839,-2.1901,-2.1909,-2.193,-2.1942,-2.1906,-2.1977,-2.1981,-2.206,-2.2092,-2.2104,-2.2119,-2.2083,-2.2223,-2.2236,-2.2249,-2.2293,-2.2311,-2.2098,-2.2098,-2.2097,-2.2097,0,-2.195,-2.1992,-2.204,-2.206,-2.208,-2.2136,-2.2112,-2.2137,-2.2112,-2.2102,-2.2165,-2.2167,-2.2196,-2.2213,-2.219,-2.2288,-2.2269,-2.2229,-2.2166,-2.2274,-2.2316,-2.2332,-2.2106,-2.2104,-2.2103,-2.2101,0,0,-2.2137,-2.2137,-2.2155,-2.2163,-2.2169,-2.2201,-2.2253,-2.2281,-2.2303,-2.2318,-2.2361,-2.2411,-2.2373,-2.2388,-2.2365,-2.2405,-2.2509,-2.236,-2.2359,-2.2388,-2.2617,-2.2648,-2.2668,-2.2484,-2.2487,-2.249,-2.2616,0,-2.2264,-2.2353,-2.2325,-2.2415,-2.2453,-2.2401,-2.2446,-2.2455,-2.2447,-2.2477,-2.2467,-2.2504,-2.2451,-2.2459,-2.2496,-2.2488,-2.2554,-2.2478,-2.2524,-2.2526,-2.2524,-2.269,-2.2723,-2.2842,-2.2632,-2.2635,-2.2637,0,-2.2425,-2.2446,-2.254,-2.2539,-2.2554,-2.2595,-2.2618,-2.2648,-2.2657,-2.2647,-2.2663,-2.2631,-2.2682,-2.2618,-2.2687,-2.2636,-2.2653,-2.2651,-2.2655,-2.266,-2.2589,-2.2699,-2.2879,-2.2898,-2.2662,-2.266,-2.2658,0,-2.2553,-2.2604,-2.2666,-2.2675,-2.2675,-2.2705,-2.2707,-2.2712,-2.273,-2.275,-2.2761,-2.2787,-2.2801,-2.2821,-2.2797,-2.2753,-2.287,-2.2805,-2.2864,-2.2865,-2.2893,-2.2892,-2.3079,-2.2902,-2.2902,-2.2902,-2.2901,0,-2.2699,-2.2759,-2.2723,-2.2762,-2.2827,-2.2793,-2.2859,-2.2854,-2.2859,-2.2895,-2.2851,-2.2887,-2.2852,-2.2884,-2.2866,-2.2926,-2.2933,-2.2927,-2.2921,-2.2931,-2.2932,-2.2943,-2.2934,-2.2906,-2.2905,-2.2904,-2.2904,0,-2.2853,-2.2832,-2.2896,-2.2891,-2.2891,-2.2939,-2.2934,-2.2969,-2.2956,-2.3003,-2.3012,-2.2993,-2.3028,-2.3006,-2.3042,-2.3029,-2.3108,-2.309,-2.3105,-2.3101,-2.3162,-2.3157,-2.3364,-2.3389,-2.3196,-2.3197,-2.3199,0,-2.2948,-2.2993,-2.2991,-2.3012,-2.3017,-2.3051,-2.3069,-2.3037,-2.3058,-2.307,-2.3104,-2.3135,-2.3159,-2.3218,-2.3207,-2.3234,-2.3217,-2.3288,-2.3221,-2.3229,-2.3219,-2.3217,-2.3221,-2.3302,-2.3304,-2.3306,-2.3307,0,-2.3119,-2.3106,-2.3134,-2.3158,-2.318,-2.3197,-2.3211,-2.3231,-2.3199,-2.3224,-2.3259,-2.3277,-2.3313,-2.3345,-2.3367,-2.3368,-2.3333,-2.3328,-2.3343,-2.3355,-2.3362,-2.3359,-2.3143,-2.3324,-2.3322,-2.3321,-2.332,-2.3319,-2.3247,-2.3284,-2.3289,-2.332,-2.3327,-2.334,-2.3373,-2.3364,-2.3393,-2.3419,-2.3398,-2.344,-2.3446,-2.3472,-2.3478,-2.351,-2.3481,-2.3504,-2.3509,-2.3516,-2.3524,-2.3356,-2.3514,-2.3513,-2.3513,-2.3512,-2.3512,0,-2.3417,-2.3416,-2.3446,-2.3466,-2.3491,-2.3454,-2.3466,-2.349,-2.3527,-2.3536,-2.3559,-2.3599,-2.3629,-2.362,-2.3647,-2.3674,-2.3659,-2.3683,-2.3681,-2.3682,-2.3548,-2.3533,-2.3695,-2.3695,-2.3695,-2.3695,-2.3695,-2.3695,-2.3508,-2.3568,-2.3555,-2.3618,-2.3617,-2.3657,-2.3668,-2.368,-2.3686,-2.3733,-2.3757,-2.375,-2.3752,-2.3778,-2.3804,-2.38,-2.3812,-2.3842,-2.3833,-2.3709,-2.3691,-2.3674,-2.3659,-2.3845,-2.3845,-2.3963,-2.3965,-2.3965]},{"header":{"parameterUnit":"m.s-1","parameterCategory":1,"la1":30.2991,"la2":30.254,"lo1":-89.0895,"lo2":-89.0444,"dy":0.0017,"dx":0.0017,"nx":28,"ny":28,"refTime":"2024-12-04T09:00:00:Z","depth":0,"parameterNumber":3,"parameterNumberName":"V-component_of_WINDS"},"data":[0,0,0,0,0,0,0,0,0,0,0,0,0,0,0,0,0,0,0,0,0,0,0,0,0,0,0,0,0,0,0,0,0,0,0,0,0,0,0,0,0,0,0,0,0,0,0,0,0,0,0,0,0,0,0,0,0,0,-7.5622,-7.5624,0,-7.5749,-7.575,-7.5752,-7.567,-7.5666,-7.5662,-7.5659,-7.5782,-7.5789,-7.5795,0,0,0,0,0,0,0,0,0,0,0,0,0,-7.5302,-7.5308,-7.5622,-7.5624,-7.5625,-7.5749,-7.575,-7.5752,-7.5671,-7.5666,-7.5661,-7.5657,-7.578,-7.5788,-7.5796,0,0,0,0,0,0,0,0,0,0,0,0,0,-7.5436,-7.5311,-7.5622,-7.56,-7.5599,-7.5748,-7.5751,-7.5753,-7.5671,-7.5666,-7.566,-7.5655,-7.5777,-7.5787,-7.5797,-7.5973,0,0,-7.5828,-7.5833,0,0,0,0,0,0,0,0,-7.5429,-7.5448,-7.5601,-7.5601,-7.5601,-7.5688,-7.5683,-7.5826,-7.5673,-7.5644,-7.5659,-7.5652,-7.5755,-7.5767,-7.5802,-7.5979,-7.5985,-7.5829,-7.5835,-7.584,-7.5843,0,0,0,0,0,0,0,-7.5419,-7.5442,-7.5672,-7.5604,-7.5603,-7.5581,-7.5594,-7.571,-7.5729,-7.5646,-7.564,-7.5657,-7.5754,-7.5793,-7.5805,-7.5986,-7.5829,-7.5838,-7.5844,-7.5848,-7.6312,-7.6318,0,0,0,0,0,0,-7.5413,-7.5435,-7.5668,-7.5676,-7.5499,-7.5591,-7.5606,-7.5666,-7.5728,-7.5732,-7.5661,-7.5652,-7.5778,-7.5793,-7.5809,-7.6018,-7.584,-7.5849,-7.5855,-7.6306,-7.6313,-7.632,0,0,0,0,0,0,-7.5406,-7.5435,-7.5663,-7.5554,-7.5581,-7.5603,-7.5671,-7.5671,-7.571,-7.574,-7.5742,-7.5699,-7.5774,-7.5794,-7.5933,-7.6021,-7.5854,-7.5863,-7.6298,-7.6308,-7.6316,-7.644,0,0,0,0,0,0,-7.5398,-7.5433,-7.5502,-7.5556,-7.5588,-7.5788,-7.5676,-7.5678,-7.5729,-7.5718,-7.5775,-7.5779,-7.5771,-7.5918,-7.5943,-7.6032,-7.5871,-7.629,-7.6303,-7.6313,-7.6428,-7.6452,-7.6473,0,0,0,0,0,-7.5386,-7.553,-7.5506,-7.5534,-7.5675,-7.5793,-7.5811,-7.5801,-7.5737,-7.5805,-7.5823,-7.5777,-7.6008,-7.5933,-7.5961,-7.6054,-7.6285,-7.6299,-7.6313,-7.6418,-7.6447,-7.6472,0,0,0,0,0,0,-7.5484,-7.5537,-7.551,-7.5677,-7.5732,-7.5779,-7.5865,-7.5833,-7.5905,-7.5892,-7.5875,-7.5888,-7.6033,-7.6057,-7.5973,-7.6227,-7.6136,-7.6156,-7.6206,-7.6235,-7.6257,-7.6247,-7.588,0,0,0,0,0,-7.5525,-7.5619,-7.566,-7.5802,-7.5831,-7.5844,-7.5895,-7.5883,-7.5938,-7.596,-7.5988,-7.6041,-7.6125,-7.6181,-7.626,-7.6431,-7.6441,-7.6508,-7.6531,-7.6549,-7.6566,-7.6656,-7.6686,-7.6366,-7.6365,-7.6365,0,0,-7.5611,-7.5651,-7.5711,-7.5823,-7.5864,-7.5959,-7.5864,-7.5969,-7.6039,-7.5975,-7.6108,-7.6131,-7.6189,-7.6344,-7.6413,-7.6368,-7.6657,-7.6567,-7.6581,-7.6589,-7.6674,-7.6704,-7.6731,-7.6375,-7.6373,-7.6372,0,0,-7.5815,-7.5856,-7.5979,-7.6022,-7.6086,-7.6093,-7.6123,-7.6176,-7.6189,-7.6323,-7.6276,-7.6358,-7.6504,-7.6546,-7.6587,-7.6807,-7.6766,-7.6833,-7.695,-7.7038,-7.7063,-7.7085,-7.7162,-7.719,-7.685,-7.685,-7.685,0,-7.5913,-7.6057,-7.6046,-7.6155,-7.6204,-7.6153,-7.6276,-7.6317,-7.6402,-7.6437,-7.6385,-7.6567,-7.6602,-7.6766,-7.6819,-7.6854,-7.6885,-7.6826,-7.7061,-7.7083,-7.7103,-7.7177,-7.7206,-7.6858,-7.6857,-7.6856,-7.6855,0,-7.6173,-7.6274,-7.6365,-7.6451,-7.651,-7.6626,-7.663,-7.6691,-7.6673,-7.6685,-7.682,-7.6861,-7.6947,-7.6984,-7.6968,-7.7145,-7.7115,-7.7063,-7.6971,-7.7142,-7.721,-7.7238,-7.6869,-7.6866,-7.6864,-7.6862,0,0,-7.6443,-7.6521,-7.6555,-7.6592,-7.6658,-7.6735,-7.6846,-7.6932,-7.6984,-7.7044,-7.7136,-7.726,-7.7212,-7.7258,-7.7246,-7.7323,-7.7492,-7.7261,-7.7262,-7.7301,-7.7689,-7.7727,-7.776,-7.7466,-7.7471,-7.7476,-7.7683,0,-7.665,-7.6848,-7.6841,-7.7024,-7.7116,-7.7068,-7.7164,-7.7214,-7.7228,-7.7305,-7.7319,-7.7407,-7.7337,-7.7365,-7.7439,-7.7456,-7.757,-7.7441,-7.7549,-7.7553,-7.7536,-7.7796,-7.7837,-7.8032,-7.771,-7.7715,-7.7718,0,-7.6919,-7.699,-7.7184,-7.7235,-7.7273,-7.7361,-7.7438,-7.7514,-7.7568,-7.7572,-7.7624,-7.7598,-7.7708,-7.7614,-7.7764,-7.7677,-7.772,-7.7735,-7.7742,-7.7751,-7.7646,-7.7811,-7.8093,-7.8122,-7.776,-7.7757,-7.7754,0,-7.7095,-7.7239,-7.7373,-7.7407,-7.7471,-7.7533,-7.7562,-7.7611,-7.7662,-7.7729,-7.7762,-7.784,-7.7882,-7.7942,-7.7937,-7.7869,-7.8089,-7.7994,-7.8094,-7.8094,-7.8142,-7.8139,-7.8434,-7.8172,-7.8171,-7.8171,-7.817,0,-7.7328,-7.7447,-7.7453,-7.7536,-7.7668,-7.7657,-7.7787,-7.7808,-7.7852,-7.7936,-7.7898,-7.7976,-7.7966,-7.8044,-7.804,-7.8164,-7.8184,-7.8189,-7.8186,-7.8192,-7.8191,-7.822,-7.8206,-7.8178,-7.8177,-7.8175,-7.8174,0,-7.7547,-7.7556,-7.7698,-7.7747,-7.7762,-7.7857,-7.7897,-7.7974,-7.7984,-7.809,-7.8114,-7.813,-7.822,-7.8221,-7.8324,-7.8321,-7.8472,-7.8455,-7.8455,-7.8451,-7.855,-7.8541,-7.8874,-7.8916,-7.8627,-7.8629,-7.8632,0,-7.7694,-7.7785,-7.7844,-7.7899,-7.7932,-7.802,-7.8073,-7.8065,-7.8121,-7.8189,-7.8257,-7.8344,-7.8413,-7.8558,-7.8577,-7.8655,-7.8638,-7.875,-7.8649,-7.8652,-7.8638,-7.8633,-7.8641,-7.8769,-7.8772,-7.8775,-7.8777,0,-7.7954,-7.7954,-7.8033,-7.8114,-7.8178,-7.8241,-7.8299,-7.8345,-7.8342,-7.8407,-7.85,-7.8554,-7.8659,-7.8745,-7.882,-7.8846,-7.8811,-7.8808,-7.8835,-7.8842,-7.8838,-7.884,-7.8507,-7.8801,-7.8798,-7.8796,-7.8795,-7.8794,-7.8141,-7.8219,-7.8273,-7.8362,-7.8405,-7.8459,-7.8534,-7.8554,-7.8632,-7.8718,-7.8708,-7.8811,-7.886,-7.8958,-7.8991,-7.9069,-7.903,-7.9069,-7.9079,-7.9088,-7.9099,-7.8826,-7.9082,-7.9082,-7.9081,-7.9081,-7.908,0,-7.8398,-7.843,-7.8512,-7.8595,-7.8664,-7.8627,-7.8688,-7.8748,-7.884,-7.889,-7.8959,-7.9065,-7.9148,-7.9173,-7.9253,-7.931,-7.9296,-7.9331,-7.9327,-7.9333,-7.913,-7.9098,-7.9342,-7.9342,-7.9342,-7.9342,-7.9342,-7.9341,-7.854,-7.8671,-7.8677,-7.8827,-7.8857,-7.896,-7.8998,-7.9047,-7.9087,-7.9207,-7.9277,-7.9293,-7.9333,-7.9415,-7.9488,-7.9493,-7.9523,-7.9566,-7.9564,-7.9374,-7.9347,-7.9322,-7.9292,-7.9573,-7.9573,-7.976,-7.9762,-7.9763]}]]